Location: Borderline Observatory
(42.7345°N, 72.8696°W)
Time: 06:19:47
(UTC-04:00)

Daily predictions for brighter satellites

Satellite Brightness Start Highest point End
(mag) Time Altitude Azimuth Time Altitude Azimuth Time Altitude Azimuth
Spot 2 Rocket 4.4 20:43:59 10° S 20:48:53 52° W 20:53:49 10° NNW
Cosmos 405 Rocket 3.1 20:48:23 10° SSW 20:52:08 68° W 20:56:01 10° N
Cosmos 921 Rocket 4.2 20:52:09 10° N 20:56:04 29° ENE 20:59:54 10° SE
SL-27 R/B 2.7 20:53:37 10° SSW 20:57:15 78° WNW 21:00:55 10° NNE
Cosmos 1441 Rocket 3.1 20:54:39 10° S 20:58:21 73° E 21:02:06 10° NNE
Cosmos 2154 Rocket 4.3 20:54:15 10° N 21:00:29 53° ENE 21:06:40 10° SSE
H-2A R/B 3.8 20:58:27 10° E 21:01:39 17° ENE 21:04:52 10° NNE
Helios 1B rocket 2.4 20:58:11 10° NNE 21:02:21 84° ESE 21:06:29 10° SSW
Tiangong 2 1.1 20:59:37 10° W 21:02:49 87° S 21:06:00 10° E
Cosmos 1680 Rocket 4.2 21:00:27 10° SSW 21:05:36 61° WNW 21:10:47 10° NNE
Aureole 1 Rocket 3.1 21:04:45 10° SW 21:07:50 51° WNW 21:10:44 10° N
Meteor 1-23 Rocket 4.2 21:02:26 10° S 21:07:58 69° E 21:13:34 10° NNE
Cosmos 2056 Rocket 3.6 21:04:06 10° NNW 21:09:14 61° ENE 21:14:17 10° SSE
Envisat 3.5 21:06:13 10° S 21:11:14 63° W 21:16:18 10° NNW
SAR-Lupe-4 4.1 21:12:44 10° S 21:16:16 59° WSW 21:19:51 10° NNW
Lacrosse 5 rocket 4.2 21:13:45 10° NNW 21:16:20 15° N 21:18:56 10° NE
Cosmos 1892 Rocket 4.2 21:12:34 10° SSE 21:16:38 37° E 21:20:42 10° NNE
Cosmos 2082 Rocket 3.0 21:12:03 10° SSE 21:16:56 31° ESE 21:21:49 10° NE
Cosmos 2278 4.0 21:12:36 10° NNW 21:18:13 55° ENE 21:23:15 13° SE
Terra 3.9 21:17:50 10° E 21:19:55 13° ENE 21:21:59 10° NNE
Meteor 1-4 Rocket 4.4 21:19:47 10° NNE 21:22:07 16° ENE 21:23:57 12° ESE
Okean 1-7 Rocket 3.8 21:19:06 10° SSW 21:23:34 77° W 21:28:06 10° N
YAOGAN 6 2.6 21:20:17 10° S 21:23:46 80° WSW 21:27:18 10° NNW
Okean 2 3.3 21:22:13 10° S 21:26:18 79° E 21:30:23 10° N
Cosmos 1606 Rocket 3.5 21:22:18 10° N 21:26:37 67° E 21:30:35 12° SSE
SPOT 5 3.2 21:28:06 15° SE 21:31:21 42° ENE 21:35:30 10° N
Cosmos 1025 Rocket 3.3 21:27:23 10° SSW 21:31:37 69° W 21:35:54 10° N
Meteor 1-15 Rocket 4.3 21:26:27 10° NNW 21:32:03 84° W 21:37:37 10° S
CZ-4B DEB 4.3 21:29:51 10° SSW 21:32:33 31° W 21:35:17 10° NNW
Cosmos 1656 4.0 21:27:32 10° NNW 21:32:51 50° ENE 21:37:02 16° SE
Cosmos 1697 Rocket 3.5 21:28:32 10° N 21:33:45 38° ENE 21:37:54 15° ESE
MOS 1-B Rocket 4.1 21:29:13 12° SSE 21:34:41 72° ENE 21:41:21 10° N
Cosmos 1726 Rocket 3.5 21:31:14 10° N 21:35:33 70° E 21:39:06 15° SSE
Cosmos 2341 Rocket 4.1 21:30:06 10° N 21:36:28 73° E 21:42:28 12° SSE
Cosmos 405 4.4 21:34:05 10° NNW 21:37:24 36° W 21:40:39 10° SSW
Cosmos 2369 3.7 21:33:06 10° NNW 21:38:52 79° ENE 21:43:25 17° SSE
Cosmos 1452 Rocket 3.9 21:35:53 10° N 21:41:00 49° ENE 21:44:39 18° SE
SL-08 RB Rocket 4.2 21:38:11 18° SE 21:41:14 45° ENE 21:45:31 10° N
COSMOS 2487 2.4 21:38:26 10° S 21:41:57 63° ESE 21:45:30 10° NNE
SL-16 R/B 4.4 21:40:25 10° NNE 21:42:48 13° NE 21:45:10 10° ENE
Cosmos 2218 Rocket 4.5 21:38:48 10° N 21:44:40 44° ENE 21:48:53 18° SE
MetOp-A 4.1 21:41:22 14° SSE 21:46:05 87° ENE 21:51:29 10° NNW
ERS-1 Rocket 3.2 21:41:26 11° S 21:46:21 70° WSW 21:51:22 10° NNW
USA 245 2.5 21:47:12 33° ESE 21:47:50 43° ENE 21:50:00 10° N
Cosmos 1833 Rocket 2.8 21:44:22 10° S 21:49:47 53° ESE 21:55:15 10° NNE
ISS -1.3 21:49:57 10° WNW 21:52:46 25° NNW 21:55:33 10° NE
SPOT 1/Viking Rocket 3.8 21:49:30 20° SE 21:52:58 54° ENE 21:57:59 10° N
Cosmos 2058 Rocket 3.0 21:50:58 10° N 21:55:26 84° E 21:58:30 20° S
Iridium 43 3.3 21:58:22 10° N 22:00:35 65° E 22:00:46 61° ESE
Cosmos 1271 Rocket 4.3 22:01:12 10° NNE 22:04:18 22° ENE 22:05:23 19° E
YAOGAN 11 4.2 22:02:04 20° S 22:04:59 74° WSW 22:09:20 10° NNW
Cosmos 2181 Rocket 4.1 21:59:24 10° S 22:05:46 85° W 22:12:05 10° N
Cosmos 1437 Rocket 4.3 22:02:21 10° NNW 22:05:49 32° W 22:09:19 10° SSW
USA 229 DEB 4.3 22:00:11 10° NNW 22:07:09 52° NE 22:12:17 19° ESE
USA 229 4.3 22:00:18 10° NNW 22:07:15 52° NE 22:12:23 19° ESE
Cosmos 1066 Rocket 4.1 22:06:49 16° S 22:11:18 75° E 22:16:58 10° NNE
Meteor 2-21 4.5 22:07:06 10° N 22:13:07 65° E 22:16:42 25° SSE
H-2A R/B 3.1 22:11:41 25° ESE 22:13:33 35° ENE 22:17:40 10° N
Cosmos 1812 Rocket 4.2 22:10:31 10° N 22:14:45 40° ENE 22:16:19 29° ESE
Cosmos 158 Rocket 4.3 22:19:00 28° SSE 22:21:26 47° ESE 22:26:35 10° NNE
Cosmos 1980 Rocket 2.5 22:17:29 10° NNW 22:23:03 55° ENE 22:25:49 28° SE
Cosmos 1626 Rocket 3.4 22:21:47 31° S 22:23:44 71° E 22:28:03 10° NNE
ARGOS 3.6 22:20:51 19° S 22:24:41 58° W 22:30:02 10° NNW
Cosmos 2228 4.0 22:29:19 10° NNW 22:33:23 42° W 22:35:49 21° SSW
CZ-4B R/B 4.3 22:29:45 10° NNE 22:34:21 32° E 22:35:16 30° ESE
Cosmos 2322 Rocket 3.6 22:29:49 10° N 22:34:39 27° NE 22:37:39 18° E
Cosmos 1953 3.7 22:31:27 10° NNE 22:34:51 25° ENE 22:35:24 24° E
Cosmos 1825 Rocket 4.4 22:37:25 30° E 22:37:43 31° E 22:41:31 10° NNE
Tiangong 2 1.0 22:36:23 10° W 22:39:22 71° SW 22:39:22 71° SW
SL-8 Rocket 4.4 22:33:44 10° NNW 22:39:53 60° W 22:44:11 20° SSW
H-2A R/B 2.2 22:38:01 29° S 22:40:31 63° W 22:45:34 10° NNW
Cosmos 1766 3.1 22:37:54 10° N 22:41:50 81° E 22:42:36 56° SSE
Landsat 7 3.8 22:40:01 36° S 22:41:57 79° WSW 22:46:45 10° NNW
Meteor 1-21 4.2 22:41:30 32° S 22:44:10 70° E 22:49:55 10° NNE
PSLV R/B 4.0 22:46:03 37° NE 22:46:03 37° NE 22:48:12 10° N
Cosmos 2366 rocket 4.1 22:40:44 10° NNW 22:46:51 71° W 22:50:17 27° S
CZ-3A R/B 3.1 22:51:17 10° WNW 22:51:31 11° WNW 22:51:31 11° WNW
Cosmos 1470 4.3 22:53:36 10° NNE 22:56:51 23° ENE 22:56:59 23° ENE
Lacrosse 5 rocket 3.1 22:52:43 10° NNW 22:56:52 31° NNE 22:59:32 18° E
Terra 1.8 22:55:30 45° S 22:56:59 80° WSW 23:01:46 10° NNW
Meteor 1-4 Rocket 4.1 22:54:14 10° NNW 22:57:20 28° W 22:58:16 24° WSW
Cosmos 1602 Rocket 4.3 22:57:23 26° SW 22:59:32 48° WNW 23:03:44 10° N
Cosmos 2082 Rocket 3.4 22:55:32 10° SW 23:00:51 41° WNW 23:06:11 10° NNE
Meteor 2-8 Rocket 4.5 23:01:41 39° SSE 23:03:54 64° E 23:10:00 10° NNE
Cosmos 1269 Rocket 4.2 23:01:07 24° SSW 23:04:17 72° WNW 23:09:37 10° NNE
Cosmos 1805 3.1 23:06:37 10° N 23:10:32 87° W 23:10:42 81° SSW
Cosmos 1048 Rocket 4.4 23:08:12 22° SW 23:11:26 59° WNW 23:16:35 10° NNE
deb Chang Zheng 4 3.7 23:09:04 10° N 23:13:23 72° WNW 23:14:27 49° SW
Cosmos 1331 Rocket 4.3 23:08:28 10° NNW 23:13:34 56° ENE 23:14:46 45° ESE
Cosmos 1110 Rocket 4.0 23:12:13 10° NNW 23:17:29 69° ENE 23:18:39 52° SE
Cosmos 1697 Rocket 3.9 23:12:40 10° NW 23:17:36 32° WSW 23:19:38 25° SW
Cosmos 1758 3.1 23:14:00 10° N 23:18:00 88° ENE 23:18:04 86° SE
Cosmos 389 Rocket 2.8 23:15:33 10° N 23:18:31 60° NNE 23:18:31 60° NNE
Spot 4 3.7 23:21:37 60° S 23:22:29 85° WSW 23:27:20 10° NNW
USA 267 3.7 23:16:57 10° ENE 23:22:56 37° SE 23:22:59 37° SE
Lacrosse 5 2.2 23:25:31 48° ESE 23:25:31 48° ESE 23:29:49 10° NE
SL-16 R/B 2.3 23:22:24 10° NNW 23:28:04 65° ENE 23:29:33 47° ESE
ISS -0.8 23:27:46 10° NW 23:30:04 17° N 23:32:21 10° NE
Cosmos 1934 Rocket 4.1 23:23:54 10° N 23:30:15 65° E 23:32:02 46° SE
NOSS 3-1 (C) 4.1 23:23:28 10° NW 23:31:04 79° NE 23:34:52 36° SE
SeaSat 1 3.9 23:30:49 22° E 23:32:41 29° NE 23:36:55 10° N
CZ-2C R/B 4.1 23:33:01 32° ESE 23:34:33 38° ENE 23:39:46 10° N
DELTA 2 DEB (DPAF) 4.1 23:34:36 66° SW 23:34:59 71° WSW 23:39:29 10° NNW
ATLAS CENTAUR R/B 1.5 23:35:23 10° NNW 23:38:30 58° N 23:38:30 58° N
Cosmos 1271 Rocket 4.3 23:36:59 10° NW 23:40:17 26° W 23:40:35 26° W
CZ-4C R/B 3.9 23:45:30 46° WNW 23:45:30 46° WNW 23:48:30 10° NNW
Cosmos 1758 Rocket 3.7 23:47:43 60° W 23:48:00 62° W 23:52:20 10° N
Cosmos 2251 Rocket 3.4 23:47:56 63° S 23:48:50 86° ESE 23:54:15 10° NNE
Cosmos 1733 3.5 23:45:23 10° N 23:48:41 64° NNW 23:48:41 64° NNW
H-2A R/B 3.8 23:48:48 22° WSW 23:49:36 24° W 23:53:15 10° NW
